| time (UTC) | temp F | wind direction | speed knots | gust knots | rain 1hr in | rain 24hr in | rain mn in | humidity % | barometer mb |
| 20260506231658 | 64 | 309 | 2.6 | 3.5 | 0.12 | 0.30 | 0.30 | 98 | 1009.8 |
| 20260506231157 | 64 | 282 | 1.7 | 3.5 | 0.12 | 0.28 | 0.28 | 97 | 1009.5 |
| 20260506230653 | 64 | 268 | 2.6 | 6.1 | 0.12 | 0.28 | 0.28 | 96 | 1009.7 |
| 20260506230150 | 64 | 256 | 2.6 | 5.2 | 0.00 | 0.26 | 0.26 | 95 | 1009.5 |
| 20260506225646 | 64 | 10 | 5.2 | 7.8 | 0.00 | 0.26 | 0.26 | 95 | 1009.4 |
| 20260506225143 | 64 | 280 | 2.6 | 3.5 | 0.00 | 0.26 | 0.26 | 95 | 1009.4 |
| 20260506224640 | 64 | 229 | 4.3 | 7.8 | 0.00 | 0.26 | 0.26 | 95 | 1009.2 |
| 20260506224136 | 65 | 258 | 6.1 | 8.7 | 0.00 | 0.26 | 0.26 | 94 | 1009.0 |
| 20260506223633 | 65 | 257 | 5.2 | 8.7 | 0.00 | 0.26 | 0.26 | 93 | 1008.9 |
| 20260506223129 | 65 | 255 | 3.5 | 7.0 | 0.00 | 0.26 | 0.26 | 92 | 1009.1 |
| 20260506222626 | 65 | 266 | 5.2 | 6.1 | 0.00 | 0.26 | 0.26 | 91 | 1009.2 |
| 20260506222122 | 65 | 249 | 3.5 | 7.0 | 0.00 | 0.26 | 0.26 | 91 | 1009.2 |
| 20260506221620 | 65 | 283 | 3.5 | 7.0 | 0.00 | 0.26 | 0.26 | 91 | 1009.1 |
| 20260506221118 | 66 | 342 | 4.3 | 7.8 | 0.00 | 0.26 | 0.26 | 90 | 1009.1 |
| 20260506220614 | 66 | 245 | 4.3 | 5.2 | 0.00 | 0.26 | 0.26 | 90 | 1009.3 |
| 20260506220109 | 66 | 297 | 1.7 | 5.2 | 0.00 | 0.26 | 0.26 | 89 | 1009.2 |
| 20260506215606 | 66 | 188 | 1.7 | 3.5 | 0.00 | 0.26 | 0.26 | 89 | 1009.1 |
| 20260506215102 | 66 | 232 | 3.5 | 6.1 | 0.00 | 0.26 | 0.26 | 89 | 1008.9 |
| 20260506214559 | 67 | 253 | 4.3 | 7.0 | 0.00 | 0.26 | 0.26 | 89 | 1009.0 |
| 20260506214056 | 66 | 338 | 2.6 | 5.2 | 0.00 | 0.26 | 0.26 | 89 | 1008.8 |
| 20260506213554 | 66 | 282 | 2.6 | 7.0 | 0.00 | 0.26 | 0.26 | 89 | 1008.8 |
| 20260506213051 | 66 | 250 | 3.5 | 7.0 | 0.00 | 0.26 | 0.26 | 89 | 1008.9 |
| 20260506212548 | 66 | 165 | 3.5 | 7.0 | 0.00 | 0.26 | 0.26 | 89 | 1008.9 |
| 20260506212043 | 66 | 263 | 4.3 | 6.1 | 0.00 | 0.26 | 0.26 | 89 | 1008.9 |
| 20260506211539 | 66 | 242 | 2.6 | 6.1 | 0.00 | 0.26 | 0.26 | 89 | 1009.0 |
| 20260506211036 | 66 | 271 | 3.5 | 6.1 | 0.00 | 0.26 | 0.26 | 89 | 1008.9 |
| 20260506210533 | 67 | 322 | 2.6 | 6.1 | 0.00 | 0.26 | 0.26 | 89 | 1008.8 |
| 20260506210029 | 67 | 302 | 5.2 | 8.7 | 0.00 | 0.26 | 0.26 | 88 | 1008.8 |
| 20260506205526 | 67 | 226 | 5.2 | 7.8 | 0.00 | 0.26 | 0.26 | 88 | 1008.5 |
| 20260506205021 | 67 | 266 | 5.2 | 7.0 | 0.00 | 0.26 | 0.26 | 88 | 1008.6 |
| 20260506204520 | 67 | 329 | 4.3 | 8.7 | 0.00 | 0.26 | 0.26 | 88 | 1008.6 |
| 20260506204016 | 67 | 219 | 5.2 | 7.0 | 0.00 | 0.26 | 0.26 | 88 | 1008.5 |
| 20260506203515 | 66 | 291 | 1.7 | 5.2 | 0.00 | 0.26 | 0.26 | 89 | 1008.7 |
| 20260506203011 | 65 | 269 | 2.6 | 7.8 | 0.00 | 0.26 | 0.26 | 90 | 1008.7 |
| 20260506202508 | 65 | 252 | 2.6 | 5.2 | 0.00 | 0.26 | 0.26 | 91 | 1008.7 |
| 20260506202004 | 65 | 237 | 1.7 | 6.1 | 0.00 | 0.26 | 0.26 | 91 | 1008.6 |
| 20260506201503 | 65 | 2 | 2.6 | 7.0 | 0.00 | 0.26 | 0.26 | 90 | 1008.7 |
| 20260506200959 | 65 | 307 | 1.7 | 8.7 | 0.00 | 0.26 | 0.26 | 90 | 1008.8 |
| 20260506200455 | 66 | 262 | 6.1 | 7.8 | 0.00 | 0.26 | 0.26 | 90 | 1008.6 |
| 20260506195951 | 66 | 245 | 3.5 | 7.8 | 0.00 | 0.26 | 0.26 | 90 | 1008.7 |
| 20260506195449 | 65 | 330 | 3.5 | 7.8 | 0.00 | 0.26 | 0.26 | 90 | 1008.8 |
| 20260506194945 | 65 | 244 | 4.3 | 9.6 | 0.00 | 0.26 | 0.26 | 91 | 1008.8 |
| 20260506194442 | 65 | 60 | 3.5 | 9.6 | 0.00 | 0.26 | 0.26 | 90 | 1008.7 |
| 20260506193939 | 65 | 273 | 3.5 | 6.1 | 0.00 | 0.26 | 0.26 | 91 | 1008.9 |
| 20260506193436 | 66 | 277 | 3.5 | 7.8 | 0.00 | 0.26 | 0.26 | 90 | 1008.8 |
| 20260506192933 | 65 | 279 | 3.5 | 9.6 | 0.00 | 0.26 | 0.26 | 90 | 1008.7 |
| 20260506192430 | 66 | 227 | 5.2 | 9.6 | 0.00 | 0.26 | 0.26 | 90 | 1008.7 |
| 20260506191926 | 65 | 17 | 3.5 | 7.8 | 0.00 | 0.26 | 0.26 | 90 | 1008.8 |
| 20260506191423 | 65 | 263 | 3.5 | 7.8 | 0.00 | 0.26 | 0.26 | 91 | 1008.7 |
| 20260506190920 | 66 | 282 | 3.5 | 11.3 | 0.00 | 0.26 | 0.26 | 90 | 1009.0 |
| 20260506190416 | 65 | 252 | 3.5 | 11.3 | 0.00 | 0.26 | 0.26 | 91 | 1008.7 |
| 20260506185913 | 65 | 240 | 4.3 | 9.6 | 0.00 | 0.26 | 0.26 | 91 | 1009.0 |
| 20260506185410 | 65 | 303 | 5.2 | 11.3 | 0.00 | 0.26 | 0.26 | 91 | 1009.1 |
| 20260506184908 | 65 | 269 | 6.1 | 12.2 | 0.00 | 0.26 | 0.26 | 91 | 1009.0 |
| 20260506184404 | 65 | 300 | 5.2 | 7.8 | 0.00 | 0.26 | 0.26 | 92 | 1009.0 |
| 20260506183902 | 64 | 245 | 5.2 | 7.8 | 0.00 | 0.26 | 0.26 | 94 | 1009.1 |
| 20260506183356 | 63 | 263 | 3.5 | 12.2 | 0.00 | 0.26 | 0.26 | 95 | 1009.1 |
| 20260506182854 | 63 | 259 | 4.3 | 8.7 | 0.00 | 0.26 | 0.26 | 95 | 1009.1 |
| 20260506182351 | 63 | 217 | 7.8 | 11.3 | 0.00 | 0.26 | 0.26 | 96 | 1009.1 |
| 20260506181848 | 62 | 282 | 5.2 | 8.7 | 0.00 | 0.26 | 0.26 | 97 | 1009.0 |
| 20260506181346 | 62 | 263 | 5.2 | 7.0 | 0.00 | 0.26 | 0.26 | 98 | 1009.3 |
| 20260506180843 | 61 | 215 | 4.3 | 8.7 | 0.00 | 0.26 | 0.26 | 98 | 1009.5 |
| 20260506180339 | 62 | 234 | 7.8 | 12.2 | 0.00 | 0.26 | 0.26 | 97 | 1009.5 |
| 20260506175836 | 62 | 238 | 4.3 | 11.3 | 0.00 | 0.26 | 0.26 | 97 | 1009.4 |
| 20260506175333 | 61 | 179 | 6.1 | 12.2 | 0.00 | 0.26 | 0.26 | 97 | 1009.5 |
| 20260506174830 | 61 | 249 | 7.8 | 11.3 | 0.00 | 0.26 | 0.26 | 97 | 1009.4 |
| 20260506174327 | 61 | 267 | 7.8 | 9.6 | 0.00 | 0.26 | 0.26 | 97 | 1009.4 |
| 20260506173825 | 61 | 201 | 5.2 | 11.3 | 0.00 | 0.26 | 0.26 | 98 | 1009.3 |
| 20260506173321 | 61 | 174 | 5.2 | 12.2 | 0.00 | 0.26 | 0.26 | 98 | 1009.4 |
| 20260506172818 | 61 | 245 | 4.3 | 6.1 | 0.00 | 0.26 | 0.26 | 98 | 1009.2 |
| 20260506172315 | 61 | 270 | 7.0 | 9.6 | 0.00 | 0.26 | 0.26 | 98 | 1009.4 |
| 20260506171812 | 61 | 224 | 3.5 | 7.8 | 0.00 | 0.26 | 0.26 | 98 | 1009.3 |
| 20260506171309 | 61 | 268 | 7.8 | 11.3 | 0.00 | 0.26 | 0.26 | 98 | 1009.2 |
| 20260506170807 | 61 | 265 | 6.1 | 9.6 | 0.00 | 0.26 | 0.26 | 99 | 1009.1 |
| 20260506170303 | 61 | 251 | 3.5 | 11.3 | 0.00 | 0.26 | 0.26 | 99 | 1009.3 |
| 20260506165802 | 61 | 231 | 7.8 | 9.6 | 0.00 | 0.26 | 0.26 | 99 | 1009.4 |
| 20260506165259 | 60 | 206 | 4.3 | 8.7 | 0.00 | 0.26 | 0.26 | 99 | 1009.4 |
| 20260506164756 | 60 | 275 | 6.1 | 9.6 | 0.00 | 0.26 | 0.26 | 99 | 1009.5 |
| 20260506164252 | 60 | 233 | 5.2 | 11.3 | 0.00 | 0.26 | 0.26 | 99 | 1009.4 |
| 20260506163749 | 60 | 255 | 4.3 | 7.8 | 0.00 | 0.26 | 0.26 | 99 | 1009.4 |
| 20260506163244 | 60 | 269 | 3.5 | 13.0 | 0.00 | 0.26 | 0.26 | 99 | 1009.4 |
| 20260506162740 | 60 | 235 | 6.1 | 11.3 | 0.00 | 0.26 | 0.26 | 99 | 1009.6 |
| 20260506162238 | 60 | 298 | 1.7 | 7.0 | 0.00 | 0.26 | 0.26 | 99 | 1009.6 |
| 20260506161735 | 60 | 261 | 7.0 | 13.0 | 0.00 | 0.26 | 0.26 | 99 | 1009.6 |
| 20260506161233 | 60 | 253 | 7.0 | 7.8 | 0.00 | 0.26 | 0.26 | 99 | 1009.7 |
| 20260506160730 | 60 | 151 | 4.3 | 11.3 | 0.00 | 0.26 | 0.26 | 99 | 1009.6 |
| 20260506160226 | 60 | 189 | 3.5 | 6.1 | 0.00 | 0.26 | 0.26 | 99 | 1009.3 |
| 20260506155725 | 60 | 261 | 6.1 | 11.3 | 0.00 | 0.26 | 0.26 | 99 | 1009.4 |
| 20260506155222 | 60 | 228 | 3.5 | 13.0 | 0.00 | 0.26 | 0.26 | 99 | 1009.2 |
| 20260506153329 | 60 | 219 | 6.1 | 7.0 | 0.12 | 0.24 | 0.24 | 99 | 1009.4 |
| 20260506152826 | 60 | 168 | 1.7 | 7.0 | 0.14 | 0.23 | 0.23 | 99 | 1009.6 |
| 20260506152324 | 60 | 179 | 7.0 | 12.2 | 0.19 | 0.22 | 0.22 | 99 | 1009.8 |
| 20260506151822 | 60 | 279 | 5.2 | 8.7 | 0.17 | 0.21 | 0.21 | 99 | 1010.1 |
| 20260506151318 | 60 | 263 | 1.7 | 5.2 | 0.05 | 0.19 | 0.19 | 99 | 1010.1 |
| 20260506150815 | 60 | 261 | 5.2 | 7.8 | 0.07 | 0.18 | 0.18 | 99 | 1010.4 |
| 20260506150312 | 60 | 251 | 2.6 | 3.5 | 0.12 | 0.18 | 0.18 | 99 | 1010.5 |
| 20260506145809 | 60 | 251 | 1.7 | 5.2 | 0.05 | 0.17 | 0.17 | 99 | 1010.5 |
| 20260506145306 | 60 | 284 | 5.2 | 11.3 | 0.07 | 0.16 | 0.16 | 99 | 1010.5 |
| 20260506144803 | 60 | 228 | 5.2 | 9.6 | 0.12 | 0.16 | 0.16 | 99 | 1010.9 |
| 20260506144300 | 60 | 244 | 7.0 | 7.8 | 0.05 | 0.15 | 0.15 | 99 | 1010.5 |
| 20260506143758 | 61 | 196 | 5.2 | 7.0 | 0.07 | 0.14 | 0.14 | 99 | 1010.3 |
| 20260506143254 | 61 | 220 | 3.5 | 7.8 | 0.07 | 0.14 | 0.14 | 99 | 1010.1 |
| 20260506142753 | 61 | 194 | 1.7 | 7.0 | 0.07 | 0.14 | 0.14 | 99 | 1010.1 |
| 20260506142251 | 61 | 227 | 5.2 | 7.0 | 0.05 | 0.13 | 0.13 | 99 | 1010.1 |
| 20260506141749 | 60 | 283 | 4.3 | 6.1 | 0.05 | 0.13 | 0.13 | 99 | 1010.0 |
| 20260506141246 | 60 | 197 | 4.3 | 7.8 | 0.07 | 0.12 | 0.12 | 99 | 1010.3 |
| 20260506140744 | 60 | 222 | 3.5 | 5.2 | 0.12 | 0.12 | 0.12 | 99 | 1009.9 |
| 20260506140241 | 60 | 265 | 3.5 | 5.2 | 0.12 | 0.11 | 0.11 | 99 | 1010.0 |
| 20260506135738 | 60 | 199 | 1.7 | 3.5 | 0.14 | 0.10 | 0.10 | 99 | 1010.1 |
| 20260506135234 | 60 | 250 | 2.6 | 3.5 | 0.12 | 0.09 | 0.09 | 99 | 1010.4 |
| 20260506134731 | 60 | 241 | 5.2 | 7.8 | 0.05 | 0.08 | 0.08 | 98 | 1010.3 |
| 20260506134227 | 60 | 216 | 4.3 | 6.1 | 0.00 | 0.07 | 0.07 | 98 | 1010.1 |
| 20260506133724 | 60 | 237 | 2.6 | 9.6 | 0.00 | 0.07 | 0.07 | 98 | 1010.2 |
| 20260506133221 | 60 | 234 | 1.7 | 3.5 | 0.00 | 0.07 | 0.07 | 98 | 1010.3 |
| 20260506132718 | 60 | 237 | 2.6 | 7.8 | 0.07 | 0.07 | 0.07 | 98 | 1010.3 |
| 20260506132215 | 60 | 193 | 2.6 | 6.1 | 0.07 | 0.07 | 0.07 | 98 | 1010.2 |
| 20260506131713 | 61 | 285 | 1.7 | 6.1 | 0.00 | 0.06 | 0.06 | 98 | 1010.1 |
| 20260506131209 | 61 | 260 | 6.1 | 8.7 | 0.05 | 0.06 | 0.06 | 98 | 1010.3 |
| 20260506130706 | 60 | 257 | 3.5 | 5.2 | 0.07 | 0.05 | 0.05 | 97 | 1010.4 |
| 20260506130203 | 60 | 204 | 3.5 | 6.1 | 0.07 | 0.05 | 0.05 | 97 | 1010.6 |
| 20260506125701 | 60 | 244 | 3.5 | 5.2 | 0.00 | 0.04 | 0.04 | 97 | 1010.4 |
| 20260506125158 | 60 | 274 | 1.7 | 7.8 | 0.05 | 0.04 | 0.04 | 97 | 1010.7 |
| 20260506124656 | 61 | 256 | 7.0 | 8.7 | 0.00 | 0.03 | 0.03 | 96 | 1010.7 |
| 20260506124154 | 61 | 252 | 5.2 | 7.0 | 0.07 | 0.03 | 0.03 | 96 | 1010.6 |
| 20260506123651 | 61 | 272 | 3.5 | 7.8 | 0.07 | 0.03 | 0.03 | 95 | 1010.5 |
| 20260506123149 | 61 | 254 | 1.7 | 7.8 | 0.00 | 0.02 | 0.02 | 94 | 1010.7 |
| 20260506122646 | 61 | 236 | 5.2 | 7.8 | 0.05 | 0.02 | 0.02 | 94 | 1010.7 |
| 20260506122143 | 61 | 260 | 3.5 | 8.7 | 0.05 | 0.02 | 0.02 | 94 | 1010.7 |
| 20260506121641 | 61 | 255 | 3.5 | 5.2 | 0.00 | 0.01 | 0.01 | 94 | 1010.6 |
| 20260506121137 | 62 | 271 | 2.6 | 5.2 | 0.07 | 0.01 | 0.01 | 93 | 1010.7 |
| 20260506120636 | 62 | 328 | 2.6 | 6.1 | 0.07 | 0.01 | 0.01 | 92 | 1010.4 |
| 20260506120132 | 62 | 247 | 3.5 | 5.2 | 0.00 | 0.00 | 0.00 | 92 | 1010.6 |
| 20260506115631 | 62 | 244 | 2.6 | 7.0 | 0.00 | 0.00 | 0.00 | 91 | 1010.3 |
| 20260506115129 | 62 | 245 | 4.3 | 6.1 | 0.00 | 0.00 | 0.00 | 91 | 1010.2 |
| 20260506114626 | 62 | 248 | 4.3 | 6.1 | 0.00 | 0.00 | 0.00 | 90 | 1010.2 |
| 20260506114124 | 63 | 195 | 2.6 | 6.1 | 0.00 | 0.00 | 0.00 | 88 | 1010.3 |
| 20260506113622 | 63 | 228 | 5.2 | 7.0 | 0.00 | 0.00 | 0.00 | 87 | 1010.4 |
| 20260506113119 | 63 | 227 | 4.3 | 6.1 | 0.00 | 0.00 | 0.00 | 86 | 1010.4 |
| 20260506112615 | 64 | 215 | 5.2 | 7.0 | 0.00 | 0.00 | 0.00 | 85 | 1010.2 |
| 20260506112113 | 64 | 265 | 4.3 | 7.8 | 0.00 | 0.00 | 0.00 | 83 | 1010.2 |
| 20260506111610 | 64 | 244 | 2.6 | 6.1 | 0.00 | 0.00 | 0.00 | 83 | 1009.8 |
| 20260506111108 | 64 | 34 | 3.5 | 7.0 | 0.00 | 0.00 | 0.00 | 83 | 1010.1 |
| 20260506110605 | 64 | 197 | 4.3 | 7.8 | 0.00 | 0.00 | 0.00 | 82 | 1009.8 |
| 20260506105559 | 64 | 231 | 7.0 | 7.8 | 0.00 | 0.00 | 0.00 | 80 | 1009.7 |
| 20260506105056 | 64 | 222 | 7.0 | 13.0 | 0.00 | 0.00 | 0.00 | 80 | 1009.8 |
| 20260506104554 | 64 | 194 | 5.2 | 8.7 | 0.00 | 0.00 | 0.00 | 80 | 1009.7 |
| 20260506104051 | 64 | 235 | 4.3 | 8.7 | 0.00 | 0.00 | 0.00 | 80 | 1009.6 |
| 20260506103548 | 64 | 33 | 4.3 | 9.6 | 0.00 | 0.00 | 0.00 | 80 | 1009.3 |
| 20260506103045 | 65 | 198 | 3.5 | 7.8 | 0.00 | 0.00 | 0.00 | 80 | 1009.2 |
| 20260506102544 | 64 | 229 | 7.0 | 11.3 | 0.00 | 0.00 | 0.00 | 80 | 1009.4 |
| 20260506102040 | 64 | 230 | 7.8 | 12.2 | 0.00 | 0.00 | 0.00 | 80 | 1009.2 |
| 20260506101537 | 64 | 234 | 2.6 | 7.8 | 0.00 | 0.00 | 0.00 | 80 | 1009.4 |
| 20260506101034 | 64 | 359 | 3.5 | 11.3 | 0.00 | 0.00 | 0.00 | 79 | 1009.2 |
| 20260506100532 | 64 | 227 | 7.0 | 8.7 | 0.00 | 0.00 | 0.00 | 79 | 1009.3 |
| 20260506100030 | 64 | 234 | 4.3 | 7.8 | 0.00 | 0.00 | 0.00 | 79 | 1009.4 |
| 20260506095529 | 64 | 245 | 3.5 | 8.7 | 0.00 | 0.00 | 0.00 | 78 | 1009.4 |
| 20260506095025 | 64 | 252 | 6.1 | 8.7 | 0.00 | 0.00 | 0.00 | 78 | 1009.3 |
| 20260506094522 | 64 | 285 | 5.2 | 7.0 | 0.00 | 0.00 | 0.00 | 78 | 1009.5 |
| 20260506094020 | 65 | 262 | 3.5 | 7.8 | 0.00 | 0.00 | 0.00 | 78 | 1009.3 |
| 20260506093518 | 65 | 232 | 5.2 | 9.6 | 0.00 | 0.00 | 0.00 | 77 | 1009.6 |
| 20260506093016 | 65 | 187 | 3.5 | 9.6 | 0.00 | 0.00 | 0.00 | 77 | 1009.6 |
| 20260506092514 | 65 | 277 | 7.8 | 9.6 | 0.00 | 0.00 | 0.00 | 77 | 1009.5 |
| 20260506092010 | 65 | 311 | 0.9 | 6.1 | 0.00 | 0.00 | 0.00 | 77 | 1009.5 |
| 20260506091508 | 65 | 294 | 2.6 | 7.0 | 0.00 | 0.00 | 0.00 | 76 | 1009.6 |
| 20260506091004 | 65 | 203 | 2.6 | 6.1 | 0.00 | 0.00 | 0.00 | 76 | 1009.6 |
| 20260506090503 | 65 | 275 | 6.1 | 7.8 | 0.00 | 0.00 | 0.00 | 76 | 1009.4 |
| 20260506085959 | 65 | 243 | 2.6 | 7.0 | 0.00 | 0.00 | 0.00 | 76 | 1009.3 |
| 20260506085455 | 65 | 237 | 7.0 | 9.6 | 0.00 | 0.00 | 0.00 | 75 | 1009.4 |
| 20260506084952 | 65 | 306 | 2.6 | 6.1 | 0.00 | 0.00 | 0.00 | 75 | 1009.4 |
| 20260506084449 | 65 | 278 | 4.3 | 9.6 | 0.00 | 0.00 | 0.00 | 74 | 1009.6 |
| 20260506083945 | 65 | 202 | 3.5 | 11.3 | 0.00 | 0.00 | 0.00 | 74 | 1009.6 |
| 20260506083443 | 65 | 262 | 0.9 | 6.1 | 0.00 | 0.00 | 0.00 | 74 | 1009.2 |
| 20260506082940 | 65 | 185 | 3.5 | 6.1 | 0.00 | 0.00 | 0.00 | 74 | 1009.5 |
| 20260506082436 | 65 | 231 | 4.3 | 12.2 | 0.00 | 0.00 | 0.00 | 73 | 1009.4 |
| 20260506081932 | 65 | 229 | 4.3 | 7.0 | 0.00 | 0.00 | 0.00 | 73 | 1009.4 |
| 20260506081431 | 65 | 299 | 2.6 | 7.0 | 0.00 | 0.00 | 0.00 | 73 | 1009.5 |
| 20260506080928 | 65 | 270 | 3.5 | 7.8 | 0.00 | 0.00 | 0.00 | 73 | 1009.4 |
| 20260506080425 | 65 | 230 | 3.5 | 8.7 | 0.00 | 0.00 | 0.00 | 72 | 1009.6 |
| 20260506073409 | 66 | 237 | 3.5 | 7.0 | 0.00 | 0.00 | 0.00 | 69 | 1009.6 |
| 20260506072906 | 66 | 205 | 6.1 | 8.7 | 0.00 | 0.00 | 0.00 | 69 | 1009.6 |
| 20260506072403 | 66 | 184 | 2.6 | 7.0 | 0.00 | 0.00 | 0.00 | 68 | 1009.7 |
| 20260506071900 | 66 | 186 | 5.2 | 8.7 | 0.00 | 0.00 | 0.00 | 67 | 1009.7 |
| 20260506071359 | 67 | 298 | 3.5 | 7.8 | 0.00 | 0.00 | 0.00 | 67 | 1009.9 |
| 20260506070855 | 67 | 232 | 3.5 | 7.8 | 0.00 | 0.00 | 0.00 | 66 | 1009.9 |
| 20260506070352 | 67 | 234 | 2.6 | 6.1 | 0.00 | 0.00 | 0.00 | 65 | 1009.6 |
| 20260506062329 | 68 | 252 | 2.6 | 7.8 | 0.00 | 0.00 | 0.00 | 62 | 1010.3 |
| 20260506061825 | 68 | 218 | 6.1 | 9.6 | 0.00 | 0.00 | 0.00 | 61 | 1010.5 |
| 20260506061322 | 68 | 247 | 3.5 | 6.1 | 0.00 | 0.00 | 0.00 | 62 | 1010.4 |
| 20260506060820 | 68 | 242 | 4.3 | 14.8 | 0.00 | 0.00 | 0.00 | 61 | 1010.5 |
| 20260506060318 | 68 | 231 | 2.6 | 8.7 | 0.00 | 0.00 | 0.00 | 61 | 1010.6 |
| 20260506051244 | 68 | 240 | 3.5 | 8.7 | 0.00 | 0.00 | 0.00 | 59 | 1010.9 |
| 20260506050742 | 68 | 181 | 5.2 | 6.1 | 0.00 | 0.00 | 0.00 | 60 | 1010.9 |
| 20260506050239 | 68 | 256 | 5.2 | 7.0 | 0.00 | 0.00 | 0.00 | 59 | 1010.9 |
| 20260506044730 | 68 | 190 | 3.5 | 11.3 | 0.00 | 0.00 | 0.00 | 58 | 1011.1 |
| 20260506044227 | 68 | 241 | 2.6 | 7.8 | 0.00 | 0.00 | 0.00 | 58 | 1011.1 |
| 20260506043724 | 68 | 187 | 3.5 | 8.7 | 0.00 | 0.00 | 0.00 | 58 | 1010.9 |
| 20260506043222 | 68 | 215 | 3.5 | 7.8 | 0.00 | 0.00 | 0.00 | 57 | 1011.1 |
| 20260506042720 | 69 | 251 | 4.3 | 8.7 | 0.00 | 0.00 | 0.00 | 56 | 1011.0 |
| 20260506042218 | 69 | 253 | 5.2 | 7.8 | 0.00 | 0.00 | 0.00 | 56 | 1010.9 |
| 20260506041717 | 69 | 239 | 6.1 | 9.6 | 0.00 | 0.00 | 0.00 | 56 | 1010.9 |
| 20260506041213 | 69 | 261 | 5.2 | 11.3 | 0.00 | 0.00 | 0.00 | 56 | 1011.0 |
| 20260506040711 | 69 | 266 | 7.0 | 9.6 | 0.00 | 0.00 | 0.00 | 55 | 1010.9 |
| 20260506040207 | 69 | 220 | 7.8 | 9.6 | 0.00 | 0.00 | 0.00 | 55 | 1011.1 |
| 20260506035704 | 69 | 300 | 8.7 | 11.3 | 0.00 | 0.00 | 0.00 | 55 | 1011.0 |
| 20260506035201 | 69 | 279 | 5.2 | 8.7 | 0.00 | 0.00 | 0.00 | 55 | 1010.9 |
| 20260506034658 | 70 | 247 | 5.2 | 11.3 | 0.00 | 0.00 | 0.00 | 55 | 1010.8 |
| 20260506034155 | 70 | 209 | 5.2 | 8.7 | 0.00 | 0.00 | 0.00 | 55 | 1011.0 |
| 20260506033653 | 70 | 244 | 4.3 | 11.3 | 0.00 | 0.00 | 0.00 | 55 | 1010.9 |
| 20260506033149 | 70 | 234 | 6.1 | 11.3 | 0.00 | 0.00 | 0.00 | 55 | 1010.7 |
| 20260506032646 | 69 | 234 | 4.3 | 11.3 | 0.00 | 0.00 | 0.00 | 56 | 1011.0 |
| 20260506032143 | 70 | 226 | 5.2 | 8.7 | 0.00 | 0.00 | 0.00 | 55 | 1010.9 |
| 20260506031640 | 69 | 286 | 7.0 | 9.6 | 0.00 | 0.00 | 0.00 | 56 | 1010.9 |
| 20260506031137 | 70 | 234 | 6.1 | 12.2 | 0.00 | 0.00 | 0.00 | 56 | 1011.0 |
| 20260506030635 | 69 | 245 | 7.8 | 11.3 | 0.00 | 0.00 | 0.00 | 56 | 1010.8 |
| 20260506030127 | 69 | 242 | 4.3 | 9.6 | 0.00 | 0.00 | 0.00 | 57 | 1010.6 |
| 20260506025624 | 69 | 234 | 5.2 | 9.6 | 0.00 | 0.00 | 0.00 | 56 | 1010.9 |
| 20260506025119 | 69 | 224 | 7.0 | 12.2 | 0.00 | 0.00 | 0.00 | 55 | 1010.9 |
| 20260506024618 | 69 | 168 | 8.7 | 9.6 | 0.00 | 0.00 | 0.00 | 55 | 1011.1 |
| 20260506024113 | 69 | 198 | 6.1 | 9.6 | 0.00 | 0.00 | 0.00 | 55 | 1011.1 |
| 20260506023610 | 69 | 257 | 5.2 | 11.3 | 0.00 | 0.00 | 0.00 | 55 | 1010.9 |
| 20260506023107 | 69 | 241 | 5.2 | 7.0 | 0.00 | 0.00 | 0.00 | 55 | 1010.8 |
| 20260506022604 | 69 | 267 | 7.8 | 11.3 | 0.00 | 0.00 | 0.00 | 55 | 1010.9 |
| 20260506022102 | 70 | 224 | 3.5 | 9.6 | 0.00 | 0.00 | 0.00 | 54 | 1010.8 |
| 20260506021559 | 70 | 213 | 4.3 | 7.8 | 0.00 | 0.00 | 0.00 | 54 | 1010.8 |
| 20260506021056 | 70 | 219 | 1.7 | 3.5 | 0.00 | 0.00 | 0.00 | 53 | 1010.8 |
| 20260506020553 | 70 | 214 | 5.2 | 7.8 | 0.00 | 0.00 | 0.00 | 52 | 1010.8 |
| 20260506020051 | 71 | 238 | 6.1 | 8.7 | 0.00 | 0.00 | 0.00 | 51 | 1010.8 |
| 20260506015548 | 71 | 186 | 3.5 | 7.0 | 0.00 | 0.00 | 0.00 | 51 | 1010.7 |
| 20260506015045 | 72 | 208 | 6.1 | 8.7 | 0.00 | 0.00 | 0.00 | 49 | 1010.7 |
| 20260506014543 | 72 | 190 | 4.3 | 7.8 | 0.00 | 0.00 | 0.00 | 49 | 1010.9 |
| 20260506014038 | 72 | 264 | 4.3 | 8.7 | 0.00 | 0.00 | 0.00 | 49 | 1010.6 |
| 20260506013537 | 72 | 170 | 5.2 | 7.8 | 0.00 | 0.00 | 0.00 | 49 | 1010.6 |
| 20260506013033 | 72 | 241 | 4.3 | 7.0 | 0.00 | 0.00 | 0.00 | 49 | 1010.6 |
| 20260506012529 | 72 | 277 | 2.6 | 9.6 | 0.00 | 0.00 | 0.00 | 48 | 1010.6 |
| 20260506012026 | 72 | 34 | 3.5 | 11.3 | 0.00 | 0.00 | 0.00 | 48 | 1010.5 |
| 20260506011524 | 72 | 229 | 2.6 | 7.8 | 0.00 | 0.00 | 0.00 | 48 | 1010.4 |
| 20260506011019 | 73 | 249 | 2.6 | 7.0 | 0.00 | 0.00 | 0.00 | 48 | 1010.3 |
| 20260506010514 | 73 | 237 | 1.7 | 7.0 | 0.00 | 0.00 | 0.00 | 48 | 1010.2 |
| 20260506010010 | 73 | 263 | 3.5 | 8.7 | 0.00 | 0.00 | 0.00 | 48 | 1010.4 |
| 20260506005507 | 73 | 263 | 3.5 | 5.2 | 0.00 | 0.00 | 0.00 | 49 | 1010.2 |
| 20260506005002 | 73 | 213 | 1.7 | 3.5 | 0.00 | 0.00 | 0.00 | 48 | 1010.0 |
| 20260506004500 | 73 | 305 | 1.7 | 7.0 | 0.00 | 0.00 | 0.00 | 48 | 1009.9 |
| 20260506003956 | 74 | 262 | 3.5 | 7.0 | 0.00 | 0.00 | 0.00 | 47 | 1010.1 |
| 20260506003453 | 74 | 230 | 3.5 | 8.7 | 0.00 | 0.00 | 0.00 | 46 | 1009.8 |
| 20260506002949 | 75 | 261 | 4.3 | 7.8 | 0.00 | 0.00 | 0.00 | 44 | 1010.0 |
| 20260506002445 | 75 | 216 | 3.5 | 6.1 | 0.00 | 0.00 | 0.00 | 44 | 1010.0 |
| 20260506001941 | 74 | 196 | 4.3 | 7.8 | 0.00 | 0.00 | 0.00 | 46 | 1009.8 |
| 20260506001438 | 74 | 164 | 4.3 | 6.1 | 0.00 | 0.00 | 0.00 | 46 | 1009.8 |
| 20260506000935 | 74 | 225 | 2.6 | 6.1 | 0.00 | 0.00 | 0.00 | 48 | 1009.6 |
| 20260506000433 | 74 | 196 | 2.6 | 7.8 | 0.00 | 0.00 | 0.00 | 49 | 1009.9 |
| 20260505235929 | 75 | 262 | 4.3 | 7.0 | 0.00 | 0.00 | 0.00 | 47 | 1009.7 |
| 20260505235428 | 75 | 216 | 4.3 | 7.8 | 0.00 | 0.00 | 0.00 | 48 | 1009.7 |
| 20260505234924 | 75 | 147 | 6.1 | 7.8 | 0.00 | 0.00 | 0.00 | 48 | 1009.7 |
| 20260505234422 | 75 | 249 | 6.1 | 8.7 | 0.00 | 0.00 | 0.00 | 48 | 1009.6 |
| 20260505233918 | 75 | 214 | 4.3 | 7.8 | 0.00 | 0.00 | 0.00 | 48 | 1009.7 |
| 20260505233416 | 76 | 244 | 4.3 | 8.7 | 0.00 | 0.00 | 0.00 | 47 | 1009.5 |
| 20260505232913 | 76 | 219 | 4.3 | 8.7 | 0.00 | 0.00 | 0.00 | 47 | 1009.5 |
| 20260505232411 | 77 | 225 | 1.7 | 5.2 | 0.00 | 0.00 | 0.00 | 44 | 1009.4 |
| 20260505231907 | 78 | 227 | 1.7 | 9.6 | 0.00 | 0.00 | 0.00 | 38 | 1009.5 |